Regional Weather Roundup
Issued by NWS

Home | Current Version | Previous Version | Graphics & Text | Print | Product List | Glossary On
Versions: 1 2 3 4 5 6 7 8 9 10 11 12 13 14 15 16 17 18 19 20 21 22 23 24 25 26 27 28 29 30 31 32 33 34 35 36 37 38 39 40 41 42 43 44 45 46 47 48 49 50
000
ASUS43 KFSD 231810
RWRSD

WEATHER ROUNDUP FOR SOUTH DAKOTA
NATIONAL WEATHER SERVICE SIOUX FALLS SD
100 PM CDT WED JUL 23 2014

NOTE: "FAIR" INDICATES FEW OR NO CLOUDS BELOW 12,000 FEET WITH NO
SIGNIFICANT WEATHER AND/OR OBSTRUCTIONS TO VISIBILITY.


SDZ001>005-009-010-012>017-231900-
NORTHWEST AND NORTH CENTRAL SOUTH DAKOTA

CITY           SKY/WX    TMP DP  RH WIND       PRES   REMARKS
BUFFALO          N/A     79  62  56 E12       30.13F
FAITH            N/A     80  61  52 SE22G29   30.22F
MOBRIDGE       PTSUNNY   79  61  53 SE16      30.23F
$$

SDZ012>016-024>037-041>051-057-063-072>074-231900-
SOUTHWEST AND SOUTH CENTRAL SOUTH DAKOTA

CITY           SKY/WX    TMP DP  RH WIND       PRES   REMARKS
RAPID CTY ARPT SUNNY     78  63  59 SE16      30.23F
PIERRE         SUNNY     82  56  40 E18G25    30.23F
CUSTER         SUNNY     77  59  53 S13G23    30.36F
ELLSWORTH AFB  SUNNY     79  64  59 SE21G29   30.22F
PHILIP         SUNNY     85  61  44 S10       30.18F
PINE RIDGE     SUNNY     83  65  54 E6        30.24F
WINNER         FAIR      83  54  36 SE15G24   30.24F
$$

SDZ004>011-016>023-039-040-231900-
NORTHEAST SOUTH DAKOTA

CITY           SKY/WX    TMP DP  RH WIND       PRES   REMARKS
ABERDEEN       MOSUNNY   77  54  44 S10G16    30.27F
WATERTOWN      SUNNY     76  52  43 VRB3      30.28F
SISSETON         N/A     76  56  49 CALM      30.27F
$$

SDZ017-020-022-023-036>040-048>070-231900-
SOUTHEAST SOUTH DAKOTA

CITY           SKY/WX    TMP DP  RH WIND       PRES   REMARKS
SIOUX FALLS    MOSUNNY   78  55  44 E5        30.27F
HURON          SUNNY     79  55  43 E9        30.26F
CHAMBERLAIN    SUNNY     79  56  45 SE13      30.25F
MITCHELL       SUNNY     80  55  42 E6        30.27F
YANKTON        MOSUNNY   75  57  53 E7        30.26F
$$

ABBREVIATIONS USED IN REMARKS
   TC - TEMPERATURE IN CELSIUS
  WCI - WIND CHILL INDEX
   HX - HEAT INDEX
  VSB - VISIBILITY




USA.gov is the U.S. government's official web portal to all federal, state and local government web resources and services.